Regional Weather Roundup
Issued by NWS Spokane, WA

Home | Current Version | Previous Version | Text Only | Print | Product List | Glossary On
Versions: 1 2 3 4 5 6 7 8 9 10 11 12 13 14 15 16 17 18 19 20 21 22 23 24 25 26 27 28 29 30 31 32 33 34 35 36 37 38 39 40 41 42 43 44 45 46 47 48 49 50
000
NZUS01 KOTX 241110
RWROTX
EASTERN WASHINGTON/NORTHERN IDAHO ROUNDUP
NATIONAL WEATHER SERVICE, SPOKANE WA
400 AM PDT THU JUL 24 2014

Note: "fair" indicated few or no clouds below 12,000 feet with no
significant weather and/or obstructions to visibility.

...NORTHEAST WASHINGTON AND NORTHERN IDAHO PANHANDLE...

CITY           SKY/WX    TMP DP  RH WIND       PRES   REMARKS
SPOKANE INTL   PTCLDY    51  44  77 S12       30.07R
SPOKANE DOWNTO MOCLDY    54  46  74 S12       30.09R
COEUR D ALENE  CLOUDY    54  46  76 CALM      30.06R
DEER PARK      MOCLDY    52  46  80 S10       30.09R
SANDPOINT      CLOUDY    54  46  76 SW7       30.06R

...SOUTHEAST WASHINGTON AND SOUTHERN IDAHO PANHANDLE...

CITY           SKY/WX    TMP DP  RH WIND       PRES   REMARKS
WALLA WALLA    CLOUDY    58  46  64 S12       30.15S
PULLMAN/MOSCOW CLEAR     51  42  71 VRB6      30.15R
LEWISTON       MOCLDY    60  43  53 W7        30.10R
LOWELL           N/A     64  51  62 CALM      30.07S

...COLUMBIA BASIN...

CITY           SKY/WX    TMP DP  RH WIND       PRES   REMARKS
EPHRATA        CLEAR     50  42  74 SW12      30.05R
MOSES LAKE     CLEAR     55  45  68 S7        30.06R
TRI CITIES     CLEAR     58  48  69 SW15      30.11R
HERMISTON      PTCLDY    51  43  74 SW7       30.14R
PENDLETON      CLEAR     50  45  83 S5        30.15R

...EAST SLOPES CASCADES...

CITY           SKY/WX    TMP DP  RH WIND       PRES   REMARKS
THE DALLES     PTCLDY    59  47  64 NW7       30.14R
YAKIMA         MOCLDY    50  43  77 CALM      30.08R
ELLENSBURG     PTCLDY    49  43  80 W8        30.07R
WENATCHEE      PTCLDY    53  44  71 S3        30.03R
OMAK           CLEAR     56  41  57 S12       29.97R

...SOUTHERN BRITISH COLUMBIA...

CITY           SKY/WX    TMP DP  RH WIND       PRES   REMARKS
PENTICTON      MOCLDY    52  50  93 N6        29.95R
CRANBROOK      PTCLDY    55  46  71 S17       29.95

...WESTERN MONTANA...

CITY           SKY/WX    TMP DP  RH WIND       PRES   REMARKS
MISSOULA       PTCLDY    61  43  51 NW10      30.04S

...NEIGHBORING CITIES...

CITY           SKY/WX    TMP DP  RH WIND       PRES   REMARKS
SEATTLE        LGT RAIN  57  51  80 S10       30.08R
CALGARY        MOCLDY    54  50  87 S10G17    29.82S



USA.gov is the U.S. government's official web portal to all federal, state and local government web resources and services.